Time,TemperatureF,DewpointF,PressureIn,WindDirection,WindDirectionDegrees,WindSpeedMPH,WindSpeedGustMPH,Humidity,HourlyPrecipIn,Conditions,Clouds,dailyrainin,SoftwareType,DateUTC
2013-03-21 00:00:00,26.4,23.3,29.80,NW,315,8.0,19.0,88,0.00,,,-99.99,WeatherLink 5.6,2013-03-21 04:00:00,
2013-03-21 00:30:00,26.2,22.6,29.79,NW,315,7.0,18.0,86,0.00,,,-99.99,WeatherLink 5.6,2013-03-21 04:30:00,
2013-03-21 01:00:00,25.6,18.5,29.79,NW,315,8.0,22.0,74,0.00,,,-99.99,WeatherLink 5.6,2013-03-21 05:00:00,
2013-03-21 01:30:00,25.0,15.9,29.80,NW,315,8.0,21.0,68,0.00,,,-99.99,WeatherLink 5.6,2013-03-21 05:30:00,
2013-03-21 02:00:00,24.5,15.4,29.79,NW,315,9.0,19.0,68,0.00,,,-99.99,WeatherLink 5.6,2013-03-21 06:00:00,
2013-03-21 02:30:00,23.9,15.5,29.78,NW,315,7.0,16.0,70,0.00,,,-99.99,WeatherLink 5.6,2013-03-21 06:30:00,
2013-03-21 03:00:00,22.7,15.3,29.78,NW,315,6.0,16.0,73,0.00,,,-99.99,WeatherLink 5.6,2013-03-21 07:00:00,
2013-03-21 03:30:00,21.1,13.5,29.78,NW,315,8.0,20.0,72,0.00,,,-99.99,WeatherLink 5.6,2013-03-21 07:30:00,
2013-03-21 04:00:00,20.3,13.3,29.78,NW,315,7.0,17.0,74,0.00,,,-99.99,WeatherLink 5.6,2013-03-21 08:00:00,
2013-03-21 04:30:00,19.7,12.1,29.78,NW,315,8.0,18.0,72,0.00,,,-99.99,WeatherLink 5.6,2013-03-21 08:30:00,
2013-03-21 05:00:00,19.3,11.7,29.76,NW,315,9.0,19.0,72,0.00,,,-99.99,WeatherLink 5.6,2013-03-21 09:00:00,
2013-03-21 05:30:00,18.7,11.5,29.76,NW,315,8.0,17.0,73,0.00,,,-99.99,WeatherLink 5.6,2013-03-21 09:30:00,
2013-03-21 05:40:00,17.7,10.8,29.76,NW,315,9.0,20.0,74,0.00,,,-99.99,WeatherLink 5.6,2013-03-21 09:40:00,
2013-03-21 06:10:00,16.9,9.4,29.76,NW,315,7.0,20.0,72,0.00,,,-99.99,WeatherLink 5.6,2013-03-21 10:10:00,
2013-03-21 06:40:00,16.7,9.5,29.78,NW,315,5.0,13.0,73,0.00,,,-99.99,WeatherLink 5.6,2013-03-21 10:40:00,
2013-03-21 07:10:00,16.4,10.7,29.78,NW,315,7.0,17.0,78,0.00,,,-99.99,WeatherLink 5.6,2013-03-21 11:10:00,
2013-03-21 07:40:00,15.7,12.3,29.80,NW,315,3.0,10.0,86,0.00,,,-99.99,WeatherLink 5.6,2013-03-21 11:40:00,
2013-03-21 08:10:00,15.0,11.3,29.81,NW,315,4.0,14.0,85,0.00,,,-99.99,WeatherLink 5.6,2013-03-21 12:10:00,
2013-03-21 08:40:00,15.0,9.7,29.82,NW,315,7.0,17.0,79,0.00,,,-99.99,WeatherLink 5.6,2013-03-21 12:40:00,
2013-03-21 09:10:00,15.6,9.1,29.83,NW,315,10.0,20.0,75,0.00,,,-99.99,WeatherLink 5.6,2013-03-21 13:10:00,
2013-03-21 09:40:00,16.6,8.8,29.83,NW,315,7.0,18.0,71,0.00,,,-99.99,WeatherLink 5.6,2013-03-21 13:40:00,
2013-03-21 10:10:00,17.2,9.1,29.84,WNW,292,7.0,17.0,70,0.00,,,-99.99,WeatherLink 5.6,2013-03-21 14:10:00,
2013-03-21 10:40:00,18.1,10.0,29.83,WNW,292,7.0,16.0,70,0.00,,,-99.99,WeatherLink 5.6,2013-03-21 14:40:00,
2013-03-21 11:10:00,19.1,10.3,29.84,NW,315,8.0,17.0,68,0.00,,,-99.99,WeatherLink 5.6,2013-03-21 15:10:00,
2013-03-21 11:40:00,19.4,11.2,29.84,NW,315,7.0,19.0,70,0.00,,,-99.99,WeatherLink 5.6,2013-03-21 15:40:00,
2013-03-21 12:10:00,19.8,10.6,29.83,NW,315,8.0,17.0,67,0.00,,,-99.99,WeatherLink 5.6,2013-03-21 16:10:00,
2013-03-21 12:40:00,19.8,10.6,29.85,NW,315,10.0,21.0,67,0.00,,,-99.99,WeatherLink 5.6,2013-03-21 16:40:00,
2013-03-21 13:10:00,20.4,11.5,29.85,NW,315,8.0,20.0,68,0.00,,,-99.99,WeatherLink 5.6,2013-03-21 17:10:00,
2013-03-21 13:40:00,21.1,10.8,29.85,WNW,292,7.0,19.0,64,0.00,,,-99.99,WeatherLink 5.6,2013-03-21 17:40:00,
2013-03-21 14:10:00,21.1,10.5,29.84,NW,315,9.0,19.0,63,0.00,,,-99.99,WeatherLink 5.6,2013-03-21 18:10:00,
2013-03-21 14:40:00,22.0,12.4,29.86,WNW,292,9.0,22.0,66,0.00,,,-99.99,WeatherLink 5.6,2013-03-21 18:40:00,
2013-03-21 15:10:00,22.0,10.2,29.86,WNW,292,11.0,22.0,60,0.00,,,-99.99,WeatherLink 5.6,2013-03-21 19:10:00,
2013-03-21 15:40:00,22.9,11.1,29.86,NW,315,11.0,23.0,60,0.00,,,-99.99,WeatherLink 5.6,2013-03-21 19:40:00,
2013-03-21 16:10:00,23.4,10.8,29.86,NW,315,10.0,23.0,58,0.00,,,-99.99,WeatherLink 5.6,2013-03-21 20:10:00,
2013-03-21 16:40:00,24.7,12.8,29.86,WNW,292,11.0,23.0,60,0.00,,,-99.99,WeatherLink 5.6,2013-03-21 20:40:00,
2013-03-21 17:10:00,24.5,12.6,29.87,NW,315,4.0,13.0,60,0.00,,,-99.99,WeatherLink 5.6,2013-03-21 21:10:00,
2013-03-21 17:40:00,23.9,11.3,29.88,NW,315,8.0,23.0,58,0.00,,,-99.99,WeatherLink 5.6,2013-03-21 21:40:00,
2013-03-21 18:10:00,23.4,11.5,29.88,NW,315,8.0,15.0,60,0.00,,,-99.99,WeatherLink 5.6,2013-03-21 22:10:00,
2013-03-21 18:40:00,22.4,11.7,29.90,NW,315,6.0,15.0,63,0.00,,,-99.99,WeatherLink 5.6,2013-03-21 22:40:00,
2013-03-21 19:10:00,22.4,12.1,29.90,NW,315,7.0,16.0,64,0.00,,,-99.99,WeatherLink 5.6,2013-03-21 23:10:00,
2013-03-21 19:40:00,21.5,11.2,29.92,NW,315,4.0,15.0,64,0.00,,,-99.99,WeatherLink 5.6,2013-03-21 23:40:00,
2013-03-21 20:10:00,20.8,12.2,29.92,NNW,337,1.0,10.0,69,0.00,,,-99.99,WeatherLink 5.6,2013-03-22 00:10:00,
2013-03-21 20:40:00,20.3,12.1,29.93,NNW,337,2.0,9.0,70,0.00,,,-99.99,WeatherLink 5.6,2013-03-22 00:40:00,
2013-03-21 21:10:00,19.7,12.8,29.94,NNW,337,3.0,12.0,74,0.00,,,-99.99,WeatherLink 5.6,2013-03-22 01:10:00,
2013-03-21 22:30:00,19.4,12.2,29.94,NW,315,2.0,8.0,73,0.00,,,-99.99,WeatherLink 5.6,2013-03-22 02:30:00,
2013-03-21 23:00:00,18.8,12.2,29.95,NW,315,0.0,3.0,75,0.00,,,-99.99,WeatherLink 5.6,2013-03-22 03:00:00,
2013-03-21 23:30:00,18.1,12.1,29.95,North,-999,0.0,0.0,77,0.00,,,-99.99,WeatherLink 5.6,2013-03-22 03:30:00,